[[{"header":{"parameterUnit":"m.s-1","parameterCategory":1,"la1":30.2991,"la2":30.254,"lo1":-89.0895,"lo2":-89.0444,"dy":0.0017,"dx":0.0017,"nx":28,"ny":28,"refTime":"2023-11-21T09:00:00:Z","depth":0,"parameterNumber":2,"parameterNumberName":"U-component_of_WINDS"},"data":[0,0,0,0,0,0,0,0,0,0,0,0,0,0,0,0,0,0,0,0,0,0,0,0,0,0,0,0,0,0,0,0,0,0,0,0,0,0,0,0,0,0,0,0,0,0,0,0,0,0,0,0,0,0,0,0,0,0,3.0791,3.079,0,3.0736,3.0735,3.0735,3.0664,3.0663,3.0662,3.0661,3.0604,3.0604,3.0603,0,0,0,0,0,0,0,0,0,0,0,0,0,3.0836,3.0835,3.0791,3.079,3.0789,3.0736,3.0735,3.0734,3.0664,3.0663,3.0662,3.066,3.0604,3.0604,3.0603,0,0,0,0,0,0,0,0,0,0,0,0,0,3.0802,3.0835,3.0791,3.0748,3.0744,3.0736,3.0735,3.0734,3.0665,3.0663,3.0661,3.066,3.0604,3.0604,3.0603,3.0633,0,0,3.0601,3.0601,0,0,0,0,0,0,0,0,3.0804,3.0801,3.0755,3.0751,3.0746,3.0705,3.073,3.07,3.0665,3.0695,3.0661,3.0659,3.0639,3.0635,3.0629,3.063,3.0628,3.0601,3.06,3.06,3.06,0,0,0,0,0,0,0,3.0807,3.0803,3.0769,3.0754,3.0749,3.0732,3.0725,3.0724,3.0677,3.0692,3.0687,3.0681,3.0636,3.063,3.0627,3.0627,3.0601,3.06,3.06,3.06,3.0653,3.0654,0,0,0,0,0,0,3.0815,3.0805,3.0771,3.0767,3.0772,3.0732,3.0725,3.072,3.0677,3.0669,3.0683,3.0678,3.0632,3.0628,3.0625,3.0659,3.06,3.0599,3.0599,3.0651,3.0653,3.0655,0,0,0,0,0,0,3.0817,3.0813,3.0773,3.0785,3.0778,3.0733,3.0728,3.072,3.0713,3.067,3.0661,3.0685,3.063,3.0626,3.0632,3.0656,3.0599,3.0599,3.0649,3.0652,3.0654,3.0726,0,0,0,0,0,0,3.0818,3.0814,3.0824,3.0785,3.0778,3.0781,3.073,3.072,3.0712,3.0706,3.0669,3.0662,3.0628,3.0633,3.0631,3.0654,3.0598,3.0646,3.065,3.0653,3.0721,3.0731,3.0739,0,0,0,0,0,3.082,3.0846,3.0825,3.0822,3.079,3.0783,3.0778,3.074,3.0714,3.0725,3.0698,3.0663,3.0653,3.0635,3.0632,3.0654,3.0645,3.0649,3.0653,3.0717,3.0729,3.0739,0,0,0,0,0,0,3.0888,3.084,3.0816,3.0831,3.0812,3.0771,3.0783,3.0753,3.074,3.0734,3.0687,3.0679,3.0692,3.0673,3.0653,3.0682,3.0644,3.0648,3.0694,3.0705,3.0713,3.0718,3.0597,0,0,0,0,0,3.0905,3.0903,3.0861,3.0878,3.0869,3.0828,3.0823,3.0795,3.0773,3.0765,3.0737,3.0717,3.071,3.0706,3.0696,3.0718,3.071,3.0732,3.0741,3.0749,3.0753,3.0765,3.0775,3.0668,3.0668,3.0668,0,0,3.0939,3.0913,3.0914,3.0891,3.0872,3.0872,3.0821,3.0822,3.0822,3.0764,3.077,3.0749,3.0724,3.0739,3.0744,3.0723,3.0781,3.0754,3.076,3.076,3.0771,3.0781,3.079,3.0671,3.0671,3.067,0,0,3.1003,3.0982,3.0994,3.0978,3.0951,3.0924,3.0927,3.0891,3.0876,3.088,3.0838,3.0836,3.0824,3.0808,3.0799,3.0859,3.0827,3.0857,3.0903,3.0916,3.0924,3.0932,3.0955,3.0964,3.0861,3.0861,3.0861,0,3.1049,3.1046,3.1005,3.1009,3.1001,3.095,3.0963,3.0948,3.092,3.0916,3.0893,3.0879,3.0857,3.0869,3.0884,3.0877,3.0881,3.0861,3.0927,3.0933,3.094,3.0961,3.097,3.0865,3.0864,3.0864,3.0864,0,3.1106,3.1105,3.1118,3.1093,3.1086,3.1095,3.1055,3.1053,3.1027,3.1002,3.1008,3.0982,3.0967,3.0967,3.094,3.0976,3.0965,3.0935,3.0896,3.0954,3.0974,3.0982,3.087,3.0869,3.0868,3.0867,0,0,3.121,3.1163,3.1169,3.1158,3.1126,3.1124,3.1131,3.1118,3.1118,3.11,3.1106,3.1098,3.1071,3.1061,3.1032,3.1043,3.1094,3.1012,3.101,3.103,3.1135,3.1158,3.1169,3.1073,3.1074,3.1075,3.1137,0,3.1268,3.1278,3.1242,3.1261,3.1261,3.1213,3.1219,3.1201,3.1178,3.1175,3.115,3.1146,3.111,3.1104,3.1112,3.1086,3.1115,3.1081,3.1079,3.108,3.1089,3.1178,3.1203,3.1263,3.1145,3.1146,3.1147,0,3.1337,3.1325,3.1345,3.1314,3.1312,3.1319,3.1304,3.1301,3.128,3.1263,3.1252,3.1219,3.1225,3.1187,3.1196,3.1174,3.1171,3.1158,3.116,3.1159,3.1118,3.1182,3.1281,3.1291,3.1158,3.1157,3.1156,0,3.1414,3.1402,3.1413,3.1405,3.1368,3.1374,3.1359,3.1336,3.1331,3.1318,3.1315,3.1303,3.1297,3.1289,3.1255,3.123,3.1268,3.1227,3.1256,3.1257,3.1267,3.1267,3.1368,3.1262,3.1262,3.1262,3.1262,0,3.1484,3.1499,3.1447,3.1454,3.147,3.1428,3.1445,3.1425,3.1405,3.1408,3.1365,3.1369,3.1322,3.1321,3.1294,3.1306,3.1303,3.1291,3.1284,3.1296,3.1298,3.1294,3.129,3.1264,3.1264,3.1263,3.1263,0,3.1573,3.1539,3.1548,3.1513,3.1504,3.1518,3.1488,3.1493,3.1469,3.1473,3.1472,3.1433,3.143,3.1395,3.1383,3.1365,3.1389,3.1373,3.1397,3.1392,3.1424,3.1422,3.1528,3.154,3.1425,3.1426,3.1427,0,3.162,3.1631,3.1597,3.1597,3.1584,3.1583,3.1578,3.1537,3.1534,3.1512,3.1521,3.1514,3.1507,3.1504,3.1475,3.1467,3.1452,3.1489,3.145,3.1463,3.1455,3.1455,3.1457,3.1498,3.1499,3.1501,3.1502,0,3.1709,3.1693,3.1687,3.1677,3.1672,3.1662,3.1649,3.1651,3.1606,3.1605,3.1602,3.1596,3.1586,3.158,3.1567,3.1552,3.1521,3.1514,3.1521,3.1534,3.1548,3.1543,3.1421,3.1512,3.1511,3.151,3.151,3.1509,3.178,3.1788,3.1767,3.1763,3.1749,3.1738,3.1742,3.1719,3.1715,3.1704,3.168,3.1681,3.1661,3.1641,3.1629,3.1629,3.161,3.1619,3.1622,3.1625,3.1632,3.1547,3.1626,3.1626,3.1626,3.1625,3.1625,0,3.1869,3.1853,3.185,3.1834,3.1831,3.1801,3.1786,3.1786,3.1787,3.1771,3.1766,3.1763,3.1758,3.173,3.1722,3.1728,3.1714,3.1728,3.1728,3.1726,3.1649,3.1645,3.174,3.174,3.174,3.174,3.174,3.174,3.1915,3.1928,3.1909,3.1915,3.1898,3.1899,3.1893,3.1884,3.1871,3.187,3.1866,3.1848,3.1828,3.1819,3.1813,3.1805,3.1805,3.1825,3.1812,3.1742,3.1731,3.172,3.1716,3.1825,3.1825,3.1889,3.189,3.189]},{"header":{"parameterUnit":"m.s-1","parameterCategory":1,"la1":30.2991,"la2":30.254,"lo1":-89.0895,"lo2":-89.0444,"dy":0.0017,"dx":0.0017,"nx":28,"ny":28,"refTime":"2023-11-21T09:00:00:Z","depth":0,"parameterNumber":3,"parameterNumberName":"V-component_of_WINDS"},"data":[0,0,0,0,0,0,0,0,0,0,0,0,0,0,0,0,0,0,0,0,0,0,0,0,0,0,0,0,0,0,0,0,0,0,0,0,0,0,0,0,0,0,0,0,0,0,0,0,0,0,0,0,0,0,0,0,0,0,0.5307,0.5311,0,0.5679,0.5683,0.5687,0.5778,0.5776,0.5773,0.5771,0.616,0.6172,0.6185,0,0,0,0,0,0,0,0,0,0,0,0,0,0.4678,0.4689,0.5306,0.5311,0.5315,0.5678,0.5683,0.5688,0.5778,0.5775,0.5772,0.577,0.6156,0.6171,0.6186,0,0,0,0,0,0,0,0,0,0,0,0,0,0.4991,0.4693,0.5305,0.5404,0.5416,0.5677,0.5683,0.569,0.5779,0.5775,0.5772,0.5768,0.6151,0.6169,0.6188,0.638,0,0,0.6246,0.6254,0,0,0,0,0,0,0,0,0.4973,0.5014,0.5385,0.5398,0.5412,0.5678,0.5605,0.5921,0.578,0.5642,0.5771,0.5766,0.6003,0.6034,0.6112,0.6398,0.6414,0.6248,0.6259,0.6268,0.6273,0,0,0,0,0,0,0,0.4951,0.4999,0.5454,0.539,0.5407,0.5431,0.5472,0.5665,0.5839,0.5653,0.5661,0.5703,0.601,0.6094,0.6122,0.642,0.6247,0.6264,0.6276,0.6283,0.688,0.6885,0,0,0,0,0,0,0.4912,0.498,0.5442,0.5465,0.5179,0.5446,0.5491,0.5597,0.5837,0.587,0.5706,0.5706,0.6063,0.61,0.6136,0.6376,0.6267,0.6285,0.6296,0.6876,0.6881,0.6886,0,0,0,0,0,0,0.4898,0.4952,0.5427,0.5225,0.5287,0.546,0.5578,0.5606,0.569,0.5877,0.5909,0.5759,0.6062,0.6109,0.6318,0.6391,0.6294,0.6311,0.6871,0.6878,0.6884,0.6857,0,0,0,0,0,0,0.488,0.4947,0.502,0.5225,0.5297,0.5601,0.5583,0.5616,0.5721,0.5725,0.5935,0.5967,0.6062,0.6289,0.6336,0.6416,0.6326,0.6865,0.6874,0.6882,0.6853,0.6862,0.6871,0,0,0,0,0,0.4857,0.5,0.5023,0.5079,0.5392,0.5605,0.5646,0.5751,0.5727,0.5803,0.5922,0.596,0.6374,0.6309,0.6364,0.645,0.6861,0.6871,0.6881,0.6849,0.686,0.6871,0,0,0,0,0,0,0.4803,0.5029,0.5058,0.5271,0.5417,0.5619,0.5719,0.576,0.5919,0.5917,0.6042,0.6089,0.6289,0.639,0.6313,0.6647,0.6617,0.6639,0.6574,0.6587,0.6596,0.6569,0.6342,0,0,0,0,0,0.4814,0.4966,0.5156,0.5326,0.5398,0.5545,0.5642,0.5709,0.5867,0.5931,0.6066,0.622,0.6384,0.6491,0.6653,0.6866,0.6914,0.6952,0.6961,0.6967,0.6986,0.7106,0.7125,0.6919,0.6919,0.6919,0,0,0.4843,0.4985,0.5074,0.5319,0.544,0.5596,0.5597,0.5762,0.5879,0.5957,0.6161,0.6265,0.6445,0.6656,0.6756,0.6746,0.7052,0.698,0.6984,0.6999,0.7118,0.7137,0.7155,0.6926,0.6925,0.6924,0,0,0.4974,0.5096,0.525,0.5371,0.5553,0.565,0.5686,0.5882,0.5953,0.6159,0.622,0.6361,0.6643,0.6768,0.6869,0.7042,0.7084,0.7092,0.7141,0.7257,0.7273,0.7288,0.7351,0.7372,0.7108,0.7108,0.7108,0,0.4987,0.5222,0.5325,0.5487,0.5593,0.5666,0.5824,0.5937,0.6164,0.6237,0.6221,0.6574,0.6701,0.6942,0.6984,0.7062,0.711,0.7071,0.7261,0.7278,0.7293,0.7355,0.7379,0.7108,0.7108,0.7108,0.7108,0,0.5229,0.539,0.5494,0.5707,0.5825,0.5984,0.6113,0.622,0.6276,0.6374,0.6583,0.6736,0.693,0.6991,0.7049,0.7241,0.7229,0.7236,0.721,0.7311,0.7372,0.7396,0.7108,0.7108,0.7108,0.7108,0,0,0.5341,0.5606,0.5643,0.574,0.5945,0.6073,0.6234,0.6421,0.6511,0.6663,0.6804,0.7038,0.7044,0.7158,0.723,0.7331,0.746,0.7326,0.7333,0.7347,0.7682,0.7677,0.7703,0.7486,0.7491,0.7495,0.7667,0,0.5498,0.5788,0.5884,0.6126,0.6277,0.6346,0.6487,0.6629,0.6724,0.6867,0.6973,0.7137,0.7133,0.7202,0.7304,0.7422,0.7529,0.7411,0.7621,0.7627,0.7576,0.7734,0.7731,0.7886,0.7691,0.7695,0.7698,0,0.5722,0.5875,0.613,0.6314,0.6381,0.6506,0.6684,0.6819,0.6981,0.7043,0.7167,0.7231,0.7404,0.7363,0.7605,0.7522,0.7613,0.7683,0.7692,0.7718,0.7671,0.7767,0.7938,0.7962,0.7736,0.7733,0.773,0,0.5779,0.6049,0.6237,0.6318,0.6537,0.6623,0.6718,0.6876,0.6981,0.7137,0.7207,0.7381,0.7477,0.7611,0.772,0.7681,0.7952,0.7921,0.8011,0.8008,0.8068,0.8063,0.8258,0.8121,0.8121,0.812,0.812,0,0.5947,0.6101,0.6265,0.6381,0.6555,0.6664,0.6835,0.6935,0.7074,0.7211,0.7281,0.7409,0.7544,0.769,0.7776,0.7963,0.8006,0.8062,0.8084,0.8058,0.8051,0.8122,0.8115,0.8127,0.8125,0.8124,0.8123,0,0.6043,0.6158,0.6368,0.6556,0.6607,0.6727,0.689,0.7005,0.7101,0.7274,0.7321,0.7472,0.7647,0.7768,0.7994,0.8051,0.8254,0.8273,0.8199,0.821,0.8294,0.8285,0.8544,0.8585,0.8417,0.8418,0.8419,0,0.6144,0.6263,0.6463,0.6558,0.6653,0.6807,0.6913,0.7025,0.7133,0.7324,0.7417,0.7596,0.7745,0.8021,0.8153,0.8326,0.8351,0.843,0.8378,0.8348,0.8356,0.8348,0.8361,0.8439,0.844,0.8441,0.8442,0,0.6311,0.6361,0.6511,0.668,0.6805,0.6944,0.7085,0.7159,0.7295,0.7414,0.7591,0.7707,0.7935,0.8112,0.8296,0.8397,0.8444,0.8456,0.8487,0.8463,0.8416,0.8445,0.8224,0.8451,0.845,0.845,0.8449,0.8449,0.6414,0.6523,0.668,0.6845,0.6961,0.7089,0.7207,0.7315,0.7465,0.7658,0.7714,0.7899,0.8057,0.8309,0.8411,0.8559,0.8554,0.8597,0.8609,0.8619,0.8619,0.8388,0.8593,0.8593,0.8593,0.8593,0.8593,0,0.6587,0.669,0.6839,0.7032,0.7161,0.7188,0.7344,0.7451,0.7612,0.7754,0.7898,0.8102,0.8274,0.8417,0.8594,0.8685,0.8711,0.8728,0.8725,0.8747,0.8613,0.857,0.8704,0.8704,0.8704,0.8704,0.8704,0.8704,0.6692,0.6878,0.6946,0.719,0.7294,0.7474,0.756,0.768,0.7793,0.8017,0.8159,0.8249,0.8393,0.858,0.8739,0.8777,0.884,0.8853,0.8896,0.8769,0.8757,0.8745,0.8705,0.8866,0.8866,0.9019,0.902,0.9021]}]]